This is the latest recevied weather packets stored in our database for station/object OK2PAT-12. If no packets are shown the sender has not sent any weather packets the latest 10 day(s).
| Time | Temp. | Humidity | Pressure | Rain* | Wind** | Luminosity | Snow |
|---|---|---|---|---|---|---|---|
| 1777209883 | 11.67° C | 39% | 1024.2 hPa | - | - | - | - |
| 1777209283 | 11.11° C | 39% | 1024.2 hPa | - | - | - | - |
| 1777208380 | 11.11° C | 42% | 1024.3 hPa | - | - | - | - |
| 1777207780 | 11.11° C | 41% | 1024.4 hPa | - | - | - | - |
| 1777207180 | 11.67° C | 40% | 1024.3 hPa | - | - | - | - |
| 1777206580 | 11.11° C | 41% | 1024.3 hPa | - | - | - | - |
| 1777205980 | 11.67° C | 39% | 1026.7 hPa | - | - | - | - |
| 1777205380 | 11.11° C | 41% | 1024.2 hPa | - | - | - | - |
| 1777204182 | 11.11° C | 41% | 1024.1 hPa | - | - | - | - |
| 1777203582 | 11.11° C | 43% | 1003.8 hPa | - | - | - | - |
| 1777202438 | 10.56° C | 44% | 1023.9 hPa | - | - | - | - |
| 1777201838 | 10.56° C | 44% | 1023.9 hPa | - | - | - | - |
| 1777201238 | 10.56° C | 44% | 1023.7 hPa | - | - | - | - |
| 1777200638 | 10.56° C | 44% | 1023.6 hPa | - | - | - | - |
| 1777200038 | 10° C | 43% | 1023.7 hPa | - | - | - | - |
| 1777199438 | 10° C | 44% | 1023.7 hPa | - | - | - | - |
| 1777198840 | 10° C | 45% | 1023.6 hPa | - | - | - | - |
| 1777198238 | 9.44° C | 46% | 1023.5 hPa | - | - | - | - |
| 1777197638 | 10° C | 45% | 1023.4 hPa | - | - | - | - |
| 1777197038 | 9.44° C | 46% | 1023.3 hPa | - | - | - | - |
| 1777196438 | 9.44° C | 49% | 1023.2 hPa | - | - | - | - |
| 1777195838 | 9.44° C | 46% | 1023.1 hPa | - | - | - | - |
| 1777195238 | 9.44° C | 48% | 1023 hPa | - | - | - | - |
| 1777194638 | 8.89° C | 49% | 1022.9 hPa | - | - | - | - |
| 1777194038 | 8.89° C | 49% | 1022.9 hPa | - | - | - | - |
* Rain since midnight (hover to see other rain measurements)
** Current wind speed in m/s (hover to see current wind gust speed)